Weather History for Columbus, OH

Change the Weather History Date:

Monday, October 14, 2013

  Actual Average Record
Temperature  
Mean Temperature 61 °F 56 °F  
Max Temperature 73 °F 66 °F 86 °F (1897)
Min Temperature 49 °F 45 °F 28 °F (1988)
Degree Days  
Heating Degree Days 4 10  
Month to date heating degree days 35 112  
Since 1 July heating degree days 88 181  
Cooling Degree Days 0 0  
Month to date cooling degree days 42 13  
Year to date cooling degree days 1179 1024  
Growing Degree Days 10 (Base 50)    
Moisture  
Dew Point 49 °F    
Average Humidity 69    
Maximum Humidity 93    
Minimum Humidity 44    
Precipitation  
Precipitation 0.00 in 0.08 in 0.89 in (1954)
Month to date precipitation 3.80 1.21  
Year to date precipitation 32.96 31.74  
Snow  
Snow 0.00 in 0.00 in 0.00 in ()
Month to date snowfall 0.0 0.0  
Since 1 July snowfall 0.0 0.0  
Since 1 September snowfall 0.0 0.0  
Snow Depth 0.00 in    
Sea Level Pressure  
Sea Level Pressure 30.27 in    
Wind  
Wind Speed 6 mph (NNE)    
Max Wind Speed 16 mph    
Max Gust Speed 20 mph    
Visibility 10 miles    
Events      
T = Trace of Precipitation, MM = Missing Value Source: NWS Daily Summary

Daily Weather History Graph

Daily Weather History Graph

Search for Another Location

Airport:

Trip Planner

Search our weather history database for the weather conditions in past years. The results will help you decide how hot, cold, wet, or windy it might be!

Date:

Astronomy

Oct. 14, 2013 Rise Set
Actual Time 7:41 AM EDT 6:53 PM EDT
Civil Twilight 7:13 AM EDT 7:20 PM EDT
Nautical Twilight 6:42 AM EDT 7:51 PM EDT
Astronomical Twilight 6:11 AM EDT 8:22 PM EDT
Moon 4:21 PM EDT (10/14) 2:56 AM EDT (10/14)
Length of Visible Light 12h 06m
Length of Day
11h 11m
Waxing Gibbous, 79% of the Moon is Illuminated
Oct 14
Waxing Gibbous
Oct 18
Full
Oct 26
Last Quarter
Nov 3
New
Nov 10
First Quarter

Hourly Weather History & Observations

Time (EDT) Temp. Dew Point Humidity Pressure Visibility Wind Dir Wind Speed Gust Speed Precip Events Conditions
12:51 AM 55.9 °F 51.1 °F 84% 30.29 in 9.0 mi North 3.5 mph - N/A   Clear
1:51 AM 54.0 °F 50.0 °F 86% 30.29 in 8.0 mi North 4.6 mph - N/A   Partly Cloudy
2:51 AM 53.1 °F 48.9 °F 86% 30.30 in 9.0 mi North 4.6 mph - N/A   Clear
3:51 AM 52.0 °F 46.9 °F 83% 30.30 in 10.0 mi North 3.5 mph - N/A   Clear
4:51 AM 51.1 °F 46.9 °F 86% 30.30 in 10.0 mi NNW 6.9 mph - N/A   Clear
5:51 AM 48.9 °F 46.0 °F 90% 30.30 in 9.0 mi North 5.8 mph - N/A   Clear
6:51 AM 48.9 °F 46.0 °F 90% 30.32 in 10.0 mi North 5.8 mph - N/A   Clear
7:51 AM 50.0 °F 46.9 °F 89% 30.33 in 10.0 mi North 5.8 mph - N/A   Partly Cloudy
8:51 AM 55.0 °F 48.9 °F 80% 30.33 in 10.0 mi North 4.6 mph - N/A   Partly Cloudy
9:51 AM 60.1 °F 48.0 °F 64% 30.34 in 10.0 mi NNE 9.2 mph - N/A   Partly Cloudy
10:51 AM 62.1 °F 48.0 °F 60% 30.34 in 10.0 mi NE 15.0 mph - N/A   Partly Cloudy
11:51 AM 64.0 °F 48.0 °F 56% 30.31 in 10.0 mi ENE 10.4 mph - N/A   Partly Cloudy
12:51 PM 66.9 °F 48.9 °F 52% 30.30 in 10.0 mi NNE 5.8 mph - N/A   Partly Cloudy
1:51 PM 69.1 °F 48.9 °F 49% 30.27 in 10.0 mi Variable 4.6 mph - N/A   Partly Cloudy
2:51 PM 71.1 °F 48.0 °F 44% 30.24 in 10.0 mi Variable 3.5 mph - N/A   Scattered Clouds
3:51 PM 72.0 °F 50.0 °F 46% 30.21 in 10.0 mi Calm Calm - N/A   Scattered Clouds
4:51 PM 72.0 °F 48.9 °F 44% 30.21 in 10.0 mi Calm Calm - N/A   Scattered Clouds
5:51 PM 71.1 °F 50.0 °F 47% 30.22 in 10.0 mi NE 4.6 mph - N/A   Scattered Clouds
6:51 PM 66.9 °F 50.0 °F 54% 30.22 in 10.0 mi NE 5.8 mph - N/A   Scattered Clouds
7:51 PM 62.1 °F 51.1 °F 67% 30.23 in 10.0 mi NE 3.5 mph - N/A   Scattered Clouds
8:51 PM 61.0 °F 50.0 °F 67% 30.21 in 10.0 mi ENE 8.1 mph - N/A   Scattered Clouds
9:51 PM 60.1 °F 48.9 °F 67% 30.21 in 10.0 mi East 5.8 mph - N/A   Scattered Clouds
10:51 PM 57.9 °F 48.9 °F 72% 30.23 in 10.0 mi East 6.9 mph - N/A   Partly Cloudy
11:51 PM 55.0 °F 48.0 °F 77% 30.22 in 10.0 mi East 4.6 mph - N/A   Partly Cloudy